User: anonymous   Login
Location: Chuathbaluk
(61.5726°N, 159.2454°W)
Time: 22:51:56
(UTC+00:00)
Language:

Courier 1B Rocket - Orbit

View from above orbital plane
View from above orbital plane
View from above satellite
View from above satellite

Ground track
Ground track

The orbit data is extracted from the following two-line orbital elements,

1    59U 60013B   20330.53976995 +.00000106 +00000-0 +19809-4 0  9993
2    59 028.2479 110.7333 0189141 198.2534 161.1147 13.52980258968403
Epoch (UTC): 25 November 2020 12:57:16
Eccentricity: 0.0189141
inclination: 28.2479°
perigee height: 920 km
apogee height: 1202 km
right ascension of ascending node: 110.7333°
argument of perigee: 198.2534°
revolutions per day: 13.52980258
mean anomaly at epoch: 161.1147°
orbit number at epoch: 96840

The dashed part of the orbit path shows where the satellite is in the earth's shadow,  

DLR